TimeMST,TemperatureF,Dew PointF,Humidity,Sea Level PressureIn,VisibilityMPH,Wind Direction,Wind SpeedMPH,Gust SpeedMPH,PrecipitationIn,Events,Conditions,WindDirDegrees,DateUTC
12:53 AM,14.0,10.9,88,30.40,10.0,Calm,Calm,-,N/A,,Clear,0,2013-02-16 07:53:00
1:53 AM,12.0,9.0,88,30.38,10.0,Calm,Calm,-,N/A,,Clear,0,2013-02-16 08:53:00
2:53 AM,10.9,9.0,92,30.36,10.0,Calm,Calm,-,N/A,,Clear,0,2013-02-16 09:53:00
3:53 AM,10.9,7.0,84,30.35,10.0,Calm,Calm,-,N/A,,Clear,0,2013-02-16 10:53:00
4:53 AM,9.0,7.0,92,30.34,10.0,South,3.5,-,N/A,,Clear,170,2013-02-16 11:53:00
5:53 AM,9.0,6.1,88,30.35,10.0,Variable,3.5,-,N/A,,Clear,0,2013-02-16 12:53:00
6:53 AM,9.0,6.1,88,30.35,10.0,Calm,Calm,-,N/A,,Clear,0,2013-02-16 13:53:00
7:53 AM,10.9,7.0,84,30.34,10.0,Calm,Calm,-,N/A,,Clear,0,2013-02-16 14:53:00
8:53 AM,12.9,10.9,92,30.37,10.0,ESE,3.5,-,N/A,,Clear,110,2013-02-16 15:53:00
9:53 AM,19.9,16.0,85,30.32,10.0,Calm,Calm,-,N/A,,Clear,0,2013-02-16 16:53:00
10:53 AM,23.0,18.0,81,30.30,10.0,SSE,4.6,-,N/A,,Clear,150,2013-02-16 17:53:00
11:53 AM,35.1,21.9,59,30.22,10.0,Calm,Calm,-,N/A,,Clear,0,2013-02-16 18:53:00
12:53 PM,41.0,24.1,51,30.14,10.0,North,4.6,-,N/A,,Clear,360,2013-02-16 19:53:00
1:53 PM,45.0,21.9,40,30.09,10.0,NNE,4.6,-,N/A,,Clear,20,2013-02-16 20:53:00
2:53 PM,45.0,23.0,42,30.07,10.0,Calm,Calm,-,N/A,,Clear,0,2013-02-16 21:53:00
3:53 PM,45.0,23.0,42,30.04,10.0,SW,8.1,-,N/A,,Clear,220,2013-02-16 22:53:00
4:53 PM,45.0,21.9,40,30.02,10.0,SW,3.5,-,N/A,,Clear,230,2013-02-16 23:53:00
5:53 PM,41.0,21.9,47,30.01,10.0,Calm,Calm,-,N/A,,Clear,0,2013-02-17 00:53:00
6:53 PM,33.1,23.0,66,30.02,10.0,South,6.9,-,N/A,,Clear,180,2013-02-17 01:53:00
7:53 PM,32.0,21.0,64,29.99,10.0,South,8.1,-,N/A,,Clear,190,2013-02-17 02:53:00
8:53 PM,30.0,19.9,66,29.96,10.0,Variable,3.5,-,N/A,,Scattered Clouds,0,2013-02-17 03:53:00
9:53 PM,30.0,21.0,69,29.90,10.0,Calm,Calm,-,N/A,,Partly Cloudy,0,2013-02-17 04:53:00
10:53 PM,32.0,19.0,59,29.85,10.0,SSW,4.6,-,N/A,,Clear,210,2013-02-17 05:53:00
11:36 PM,30.2,24.8,80,29.79,1.5,NW,18.4,25.3,0.00,Snow,Light Snow,320,2013-02-17 06:36:00
11:53 PM,30.0,26.1,85,29.84,0.8,North,6.9,-,0.00,Snow,Light Snow,360,2013-02-17 06:53:00
11:57 PM,30.2,26.6,86,29.78,1.0,Calm,Calm,-,0.00,Snow,Light Snow,0,2013-02-17 06:57:00